Location: Mascot Post Office (historical)
(40.2645°N, 99.5462°W)
Time: 16:43:43
(UTC+00:00)

BREEZE M DEB (TANK) - Pass Details

Date: 14 July 2020
Orbit: 328 x 16144 km, 49.4° (Epoch: 03 August)

Event Time Altitude Azimuth Distance (km) Brightness Sun altitude
Rises 02:25:52 0° 188° (S) 2,371 5.3 -3.8°
Reaches altitude 10° 02:27:32 10° 171° (S) 1,803 4.6 -4.1°
Maximum altitude 02:30:40 25° 113° (ESE) 1,705 4.3 -4.6°
Drops below altitude 10° 02:37:54 10° 63° (ENE) 4,465 6.7 -5.7°
Sets 02:45:28 0° 54° (NE) 7,531 7.9 -6.9°
